Location: Middle Street
(51.7167°N, 0.0333°E)
Time: 20:10:50
(UTC+00:00)

Cosmos 1626 Rocket - Pass Details

Date: 20 January 2021
Orbit: 603 x 631 km, 82.5° (Epoch: 27 February)

Event Time Altitude Azimuth Distance (km) Brightness Sun altitude
Rises 19:24:18 0° 203° (SSW) 2,872 7.3 -26.8°
Reaches altitude 10° 19:26:34 10° 209° (SSW) 1,976 6.4 -27.1°
Maximum altitude 19:30:50 51° 285° (WNW) 789 4.3 -27.8°
Enters shadow 19:31:16 49° 307° (NW) 812 4.3 -27.9°
